Wetbulb
43.93 44.55 44.72 45.27 45.74 46.01 46.52 47.24 47.39 47.53 48.01 48.84 49.21 49.89 50.95 52.38 52.36 52.48 52.68 51.57 52.01 51.71 52.41 52.13 52.63 52.66 49.60 49.32 51.36 51.04 47.84 45.48 38.76 39.48 41.35 41.97 41.10 40.83 42.23 43.25 43.77 43.33 42.91
44.34 43.93 44.25 44.82 45.14 45.36 45.93 46.66 47.13 47.28 47.98 48.81 48.85 49.25 50.60 52.04 52.74 51.98 51.33 51.11 50.42 51.28 52.05 52.52 50.78 49.36 47.83 47.46 47.94 49.48 47.44 44.62 41.32 37.85 39.05 38.27 38.17 39.19 39.54 39.50 39.76 40.59 40.39
43.85 43.36 43.48 43.90 44.36 45.15 45.59 46.16 46.52 46.83 47.61 48.37 48.58 48.69 50.16 51.55 52.66 52.33 51.73 51.01 51.40 51.37 51.05 52.03 49.90 50.00 46.90 46.45 46.29 47.24 47.85 44.83 43.08 39.86 36.90 38.03 36.61 36.79 35.27 35.70 35.64 35.51 37.77
43.31 42.85 42.97 43.29 44.02 44.76 45.42 45.61 46.12 46.56 47.06 47.94 48.47 48.58 49.42 50.27 52.29 52.25 51.51 51.34 51.30 51.35 50.60 51.18 51.12 49.69 49.37 47.82 46.21 46.37 46.05 43.46 41.11 38.86 36.69 35.91 35.31 35.15 34.83 32.87 31.44 33.08 33.49
42.93 42.65 42.83 43.75 43.95 44.33 44.62 45.23 45.76 45.90 46.58 47.79 47.85 48.30 48.75 49.40 51.13 52.14 51.31 51.09 51.14 50.74 50.59 51.14 49.90 46.38 42.14 45.28 46.71 44.77 44.92 42.48 41.17 37.86 36.24 35.33 32.87 32.23 32.03 32.82 31.09 30.76 31.16
42.93 42.20 42.82 42.71 42.73 43.28 43.93 44.30 44.62 45.19 46.11 47.39 48.00 48.09 47.91 47.72 44.14 44.14 48.58 51.18 50.84 50.05 49.26 49.40 48.49 39.73 42.72 41.36 41.97 43.19 45.54 44.43 41.32 39.98 39.15 35.82 34.38 34.53 32.33 31.47 30.62 30.28 28.88
42.32 41.73 41.51 41.90 41.92 42.57 43.09 43.20 43.44 44.26 45.87 46.75 47.77 47.91 47.60 48.29 43.11 43.19 41.82 50.03 50.93 50.39 49.30 48.47 45.73 44.93 42.74 45.63 41.51 41.11 40.33 41.44 42.81 43.52 40.58 39.35 35.18 34.69 33.45 31.24 31.59 31.53 29.22
41.20 41.06 41.04 40.80 40.90 41.43 41.44 42.41 43.14 44.23 45.19 46.46 47.22 47.59 47.45 47.32 42.38 42.36 40.19 50.23 51.11 50.32 49.05 48.59 47.00 46.59 47.20 45.82 44.34 43.78 44.07 42.73 42.88 44.46 44.69 40.90 39.40 36.81 35.28 34.72 32.57 30.08 29.53
39.68 40.16 40.31 40.79 40.36 40.60 40.76 41.70 43.05 43.76 44.73 45.92 46.54 47.02 46.33 47.25 41.23 40.84 41.77 47.20 47.87 48.45 47.65 48.20 47.23 44.22 41.12 41.33 44.19 41.00 39.26 38.83 41.14 41.18 41.47 40.44 39.33 37.65 36.55 32.71 30.46 28.29 26.54
38.59 39.03 39.85 40.51 40.48 40.35 41.08 41.14 41.98 43.66 43.13 41.18 43.24 44.24 39.48 45.37 40.37 40.35 41.58 45.01 44.99 43.49 44.92 45.01 37.02 45.22 39.00 40.77 43.97 40.25 37.43 38.12 37.98 36.60 38.20 38.67 37.76 36.89 35.61 36.19 32.55 31.30 28.98
36.52 37.57 38.27 39.25 39.55 40.61 40.38 39.09 40.34 40.66 39.51 39.52 38.29 38.82 39.99 39.82 42.71 40.28 40.12 44.91 44.06 39.46 38.68 37.36 38.07 40.51 39.63 40.64 42.26 40.45 40.12 37.14 37.64 35.86 35.21 35.48 35.20 35.15 34.47 35.74 34.41 34.52 31.65
34.71 34.33 34.63 35.91 36.34 37.96 38.57 37.75 36.99 38.67 37.74 35.31 35.13 35.24 35.87 38.79 36.65 39.68 40.09 41.01 42.58 38.76 38.24 38.43 37.60 39.49 39.92 40.61 39.65 40.70 39.19 37.13 36.49 35.25 34.57 33.75 33.53 33.69 33.80 34.10 33.61 32.40 31.90
33.75 33.04 33.30 33.64 33.93 34.75 35.68 35.16 36.14 35.89 35.89 34.69 33.97 35.18 35.36 34.26 36.78 37.59 38.58 39.63 39.63 38.05 36.58 38.15 38.78 39.24 39.73 39.95 40.09 38.79 35.43 36.58 35.86 34.80 34.86 34.63 34.94 34.98 33.87 31.85 30.59 29.53 28.88
32.64 32.79 33.28 33.59 33.79 34.22 35.08 35.02 36.51 36.36 35.04 33.75 33.57 34.11 34.58 34.67 35.78 34.91 33.99 35.53 35.87 35.47 36.00 35.88 37.37 37.68 38.33 37.50 34.86 36.86 35.69 36.55 36.85 36.81 36.29 35.20 33.63 32.85 32.31 32.27 29.87 29.35 29.21
32.77 32.76 33.03 33.27 33.33 33.06 33.47 34.90 34.71 35.30 35.08 34.19 34.06 33.73 33.93 34.58 34.66 36.98 35.80 33.63 34.29 34.38 34.02 33.50 33.17 33.50 34.06 33.86 34.09 34.31 33.99 34.17 34.71 34.31 33.79 32.84 32.75 32.37 32.28 31.93 31.98 30.60 30.35
31.49 32.66 33.31 33.65 33.27 33.22 33.48 33.82 35.25 35.47 35.88 36.66 37.18 35.93 33.42 35.81 37.69 37.98 38.54 38.26 37.72 36.66 33.88 33.21 33.30 33.53 34.35 34.50 34.51 33.93 33.86 33.85 34.69 34.20 33.64 33.36 32.80 32.41 32.04 31.29 32.44 31.55 32.05
30.30 30.28 30.73 31.70 32.37 33.20 33.99 34.45 33.59 34.74 35.91 36.17 36.30 36.39 36.65 36.44 36.96 37.82 38.24 38.32 37.75 36.57 33.46 33.39 33.51 33.97 34.29 34.19 34.15 34.22 34.40 34.53 34.96 34.09 33.97 33.41 33.35 32.93 32.15 31.12 32.00 31.86 31.85
28.44 27.60 29.98 30.05 30.48 30.74 31.13 30.93 32.42 33.51 33.21 33.59 34.84 35.75 35.72 36.01 36.25 37.12 38.04 36.67 33.59 34.49 32.70 33.01 33.22 32.99 32.93 33.03 33.15 33.59 33.26 33.22 33.59 33.77 33.73 33.50 33.33 33.09 32.11 31.71 31.83 31.80 32.39
26.73 27.56 29.29 29.92 30.10 30.11 30.02 29.71 30.34 31.43 31.17 31.47 33.79 34.73 33.25 35.52 36.39 37.17 37.85 33.41 33.08 32.84 32.77 32.99 32.95 32.92 32.88 33.03 33.24 33.19 33.59 33.37 33.61 33.44 33.55 33.50 33.39 33.08 32.54 32.54 32.23 31.92 32.42
21.19 18.40 23.72 28.08 28.14 28.81 29.62 29.50 29.16 29.11 29.17 29.40 30.58 31.90 33.16 33.46 32.79 32.92 33.04 33.08 32.81 32.73 32.77 32.92 32.93 32.90 32.88 32.92 32.88 32.92 33.03 33.41 33.06 33.21 33.32 33.37 33.32 33.32 33.50 32.93 32.59 32.00 32.07
23.38 23.26 21.32 27.41 27.60 27.85 28.22 28.00 28.11 28.44 28.17 27.88 28.92 30.73 31.21 32.09 31.50 32.65 32.54 32.77 32.70 32.88 33.03 32.90 32.79 32.79 32.92 32.93 32.93 32.86 33.08 33.12 33.19 33.26 33.59 33.26 33.04 32.27 33.28 33.56 32.99 32.57 32.58
19.77 20.37 21.21 21.12 22.82 25.03 26.34 27.27 27.48 27.41 27.22 27.28 28.09 29.57 30.16 30.83 30.99 30.77 31.88 32.35 32.64 32.86 32.95 32.84 32.81 32.86 32.93 32.86 32.84 32.92 32.97 32.99 33.35 33.15 33.13 33.08 32.72 32.74 33.01 32.71 32.55 32.56 32.31
17.59 17.28 16.83 16.08 17.13 16.18 20.07 20.59 20.19 21.35 22.83 23.79 25.13 27.02 28.33 28.97 29.76 29.73 30.57 32.23 32.54 32.66 32.72 32.81 32.84 32.83 33.13 33.01 33.13 33.32 33.08 33.21 33.55 33.39 33.13 32.77 32.47 32.47 32.70 32.52 32.53 32.18 31.65
14.98 15.02 14.57 13.89 13.66 14.62 15.05 15.07 15.50 13.55 15.70 17.73 18.86 20.08 21.36 22.07 22.58 23.76 25.53 27.35 29.05 31.04 32.53 32.68 32.72 32.73 32.93 33.10 33.13 33.06 33.08 33.37 33.35 33.46 33.75 33.15 32.61 32.50 32.15 31.90 31.96 31.96 31.60
12.33 12.25 12.24 12.49 12.41 12.23 13.34 13.26 13.74 13.70 14.45 15.33 16.08 16.65 17.22 18.00 18.75 20.32 22.05 22.75 22.93 24.15 25.19 25.59 29.70 31.84 32.93 32.96 33.03 33.35 33.40 32.62 32.94 33.12 33.19 33.08 32.64 32.59 32.42 31.91 31.52 30.47 29.73
10.11 10.30 10.82 11.03 11.27 11.15 11.84 12.13 12.16 12.25 12.22 13.36 13.95 14.18 14.60 15.32 16.23 17.21 17.88 18.33 19.05 19.81 21.40 23.53 24.92 25.96 26.63 29.09 31.90 32.50 32.46 32.28 32.73 32.72 32.85 32.48 31.96 31.96 32.23 31.84 31.27 30.25 28.42
MSLP
1016.64 1017.04 1017.57 1017.90 1018.15 1018.37 1018.57 1018.84 1018.90 1019.13 1019.24 1019.26 1019.35 1019.29 1019.20 1018.99 1018.91 1018.84 1018.81 1019.07 1018.94 1019.21 1019.29 1019.65 1020.00 1020.35 1020.61 1020.98 1021.03 1021.36 1021.91 1022.71 1024.08 1026.83 1027.35 1027.98 1028.13 1028.53 1028.83 1029.17 1029.41 1029.80 1030.19
1016.32 1016.86 1017.39 1017.68 1018.02 1018.17 1018.34 1018.64 1018.87 1018.93 1019.31 1019.30 1019.35 1019.38 1019.31 1019.18 1018.98 1018.90 1018.99 1019.12 1019.29 1019.25 1019.52 1019.69 1020.22 1020.70 1021.05 1021.38 1021.38 1021.73 1022.61 1023.60 1023.80 1026.09 1027.70 1028.49 1028.97 1029.26 1029.50 1029.70 1030.20 1030.68 1030.79
1016.10 1016.56 1017.20 1017.46 1017.75 1017.88 1018.06 1018.46 1018.79 1018.84 1019.17 1019.36 1019.33 1019.41 1019.33 1019.35 1019.17 1019.13 1019.09 1019.25 1019.44 1019.61 1019.87 1019.93 1020.41 1020.81 1021.39 1021.64 1022.01 1022.17 1022.86 1024.15 1025.19 1025.76 1027.48 1028.84 1029.69 1030.03 1030.41 1030.68 1031.31 1031.65 1031.64
1015.83 1016.24 1016.77 1017.17 1017.36 1017.60 1017.92 1018.30 1018.55 1018.68 1018.89 1019.22 1019.27 1019.44 1019.51 1019.45 1019.41 1019.34 1019.34 1019.41 1019.52 1019.73 1020.09 1020.41 1020.68 1021.00 1021.29 1021.93 1022.32 1022.74 1023.43 1024.51 1025.66 1026.45 1027.68 1028.64 1029.58 1030.72 1030.85 1031.27 1032.07 1032.35 1032.54
1015.46 1015.95 1016.24 1016.77 1017.13 1017.44 1017.78 1018.07 1018.48 1018.62 1018.76 1019.06 1019.25 1019.39 1019.49 1019.50 1019.54 1019.60 1019.54 1019.54 1019.73 1019.96 1020.27 1020.64 1021.13 1021.25 1021.46 1021.64 1022.14 1022.90 1023.71 1024.53 1025.47 1026.46 1027.58 1028.61 1029.48 1030.30 1030.63 1031.31 1032.06 1032.79 1033.45
1014.96 1015.49 1016.02 1016.46 1016.97 1017.36 1017.70 1018.02 1018.44 1018.54 1018.82 1018.92 1019.11 1019.30 1019.39 1019.52 1019.59 1019.55 1019.59 1019.64 1019.73 1019.98 1020.37 1020.75 1021.39 1022.09 1021.89 1021.99 1022.27 1022.58 1022.55 1023.71 1025.00 1025.81 1026.77 1027.60 1028.65 1029.44 1030.33 1031.08 1031.75 1032.67 1033.70
1014.80 1015.45 1015.88 1016.20 1016.75 1017.14 1017.61 1017.91 1018.23 1018.35 1018.66 1018.73 1018.83 1019.00 1019.18 1019.39 1019.63 1019.69 1019.67 1019.56 1019.68 1019.80 1020.10 1020.67 1021.26 1021.93 1022.01 1022.44 1022.66 1023.09 1023.63 1023.91 1023.52 1024.04 1025.33 1026.47 1027.53 1028.21 1029.33 1030.49 1031.20 1031.88 1032.68
1014.81 1015.29 1015.63 1016.12 1016.57 1017.09 1017.49 1017.67 1017.97 1018.17 1018.35 1018.50 1018.66 1018.85 1018.94 1019.22 1019.41 1019.58 1019.49 1019.64 1019.46 1019.67 1019.92 1020.35 1020.97 1021.50 1021.97 1022.40 1022.85 1023.22 1023.73 1024.18 1024.34 1024.42 1024.79 1025.42 1026.32 1027.53 1028.47 1029.33 1030.75 1031.89 1032.83
1014.74 1015.05 1015.34 1015.77 1016.25 1016.84 1017.07 1017.34 1017.59 1017.91 1018.17 1018.39 1018.56 1018.74 1019.05 1019.13 1019.27 1019.33 1019.42 1019.48 1019.62 1019.72 1019.86 1020.13 1020.66 1021.19 1021.68 1022.08 1022.76 1023.17 1023.63 1024.13 1024.44 1024.79 1025.16 1025.90 1026.57 1027.41 1028.32 1029.50 1030.72 1031.41 1032.70
1014.90 1015.11 1015.42 1015.76 1016.19 1016.67 1017.03 1017.47 1017.86 1018.00 1018.27 1018.68 1018.67 1018.79 1019.07 1019.24 1019.35 1019.40 1019.15 1019.40 1019.44 1019.67 1019.89 1020.08 1020.26 1020.89 1021.35 1021.68 1022.22 1023.03 1023.79 1024.14 1024.57 1024.99 1025.72 1026.34 1026.76 1027.45 1027.84 1028.02 1029.20 1029.98 1031.00
1015.21 1015.49 1015.79 1016.04 1016.40 1016.61 1017.05 1017.69 1017.93 1018.24 1018.63 1018.80 1018.85 1018.99 1019.17 1019.21 1019.33 1019.48 1019.48 1018.85 1019.11 1019.55 1019.87 1019.92 1020.03 1020.46 1020.87 1021.38 1021.62 1022.35 1022.75 1023.37 1024.32 1024.94 1025.65 1026.40 1027.02 1027.52 1028.01 1028.10 1028.43 1028.63 1029.42
1015.82 1015.99 1016.39 1016.63 1016.83 1016.99 1017.34 1017.85 1018.15 1018.47 1018.72 1018.80 1018.98 1019.09 1019.12 1019.14 1018.92 1019.05 1019.23 1019.04 1018.82 1019.22 1019.46 1019.55 1019.77 1020.17 1020.50 1020.97 1021.49 1021.79 1022.54 1023.30 1024.10 1024.91 1025.65 1026.25 1026.56 1026.89 1027.36 1027.81 1028.28 1028.72 1029.09
1016.17 1016.47 1016.86 1017.14 1017.33 1017.51 1017.69 1018.10 1018.45 1018.55 1018.74 1018.90 1018.99 1019.10 1019.13 1018.98 1018.85 1019.05 1019.03 1018.98 1018.82 1018.77 1018.94 1019.23 1019.46 1019.72 1020.18 1020.77 1021.12 1021.65 1022.49 1023.10 1023.83 1024.53 1024.88 1025.29 1025.64 1026.08 1027.02 1027.87 1028.55 1029.01 1029.38
1016.41 1016.90 1017.24 1017.46 1017.71 1017.87 1018.03 1018.26 1018.48 1018.63 1018.79 1018.75 1018.90 1019.03 1018.99 1019.15 1019.04 1019.03 1018.89 1018.90 1018.79 1018.69 1018.88 1019.09 1019.36 1019.68 1020.20 1020.42 1021.18 1021.71 1022.18 1022.52 1022.96 1023.42 1023.98 1024.65 1025.38 1026.06 1026.69 1027.24 1028.20 1028.87 1029.44
1016.78 1017.25 1017.64 1017.93 1018.15 1018.35 1018.49 1018.60 1018.61 1018.78 1018.73 1018.77 1018.87 1018.98 1018.95 1019.02 1019.10 1019.07 1018.91 1018.89 1018.81 1018.79 1019.02 1019.27 1019.76 1020.09 1020.36 1020.76 1021.10 1021.34 1021.71 1022.30 1022.74 1023.09 1023.62 1024.18 1024.85 1025.50 1025.92 1026.56 1027.20 1028.05 1028.47
1017.12 1017.54 1017.83 1018.15 1018.38 1018.58 1018.75 1018.92 1018.92 1018.89 1018.79 1018.73 1018.82 1018.85 1019.07 1018.94 1018.97 1018.97 1018.93 1018.93 1018.82 1018.81 1019.29 1019.33 1019.54 1019.81 1020.17 1020.34 1020.68 1021.04 1021.29 1021.71 1022.07 1022.54 1023.07 1023.55 1023.98 1024.44 1025.04 1025.73 1026.16 1026.68 1027.16
1017.27 1017.73 1018.14 1018.38 1018.66 1018.82 1018.81 1018.89 1019.00 1019.20 1018.98 1018.86 1018.94 1019.02 1019.09 1018.91 1018.93 1018.93 1018.94 1018.93 1018.88 1019.05 1019.27 1019.44 1019.57 1019.67 1019.73 1020.00 1020.33 1020.48 1020.63 1020.86 1021.35 1021.88 1022.32 1022.81 1023.32 1023.90 1024.46 1024.88 1025.22 1025.66 1026.13
1017.88 1018.25 1018.48 1018.70 1018.89 1019.02 1019.19 1019.40 1019.30 1019.29 1019.13 1019.26 1019.17 1019.33 1019.07 1018.86 1018.87 1018.93 1018.85 1018.99 1019.16 1019.16 1019.32 1019.53 1019.76 1019.90 1019.98 1020.08 1020.27 1020.37 1020.56 1020.81 1021.16 1021.50 1021.87 1022.15 1022.60 1023.00 1023.52 1023.83 1024.23 1024.54 1024.98
1018.74 1018.97 1018.91 1018.89 1018.98 1019.12 1019.41 1019.57 1019.59 1019.55 1019.56 1019.85 1019.53 1019.66 1019.19 1019.04 1018.94 1018.89 1018.89 1019.04 1019.22 1019.27 1019.39 1019.58 1019.77 1019.75 1019.70 1019.69 1019.80 1020.07 1020.28 1020.46 1020.65 1020.93 1021.25 1021.54 1021.85 1022.11 1022.38 1022.69 1023.08 1023.51 1024.08
1019.38 1019.66 1019.41 1019.28 1019.48 1019.64 1019.58 1019.69 1019.83 1019.91 1019.96 1020.26 1020.09 1019.94 1019.54 1019.41 1019.36 1019.46 1019.40 1019.34 1019.43 1019.46 1019.42 1019.46 1019.56 1019.54 1019.53 1019.56 1019.65 1019.78 1019.83 1020.05 1020.29 1020.51 1020.69 1020.88 1021.06 1021.19 1021.33 1021.63 1021.98 1022.37 1022.69
1019.61 1019.69 1019.67 1019.65 1020.09 1020.27 1020.10 1020.15 1020.11 1020.14 1020.37 1020.51 1020.34 1020.17 1019.97 1019.87 1019.91 1019.83 1019.85 1019.67 1019.65 1019.57 1019.51 1019.57 1019.53 1019.48 1019.49 1019.42 1019.45 1019.47 1019.55 1019.57 1019.61 1019.76 1019.95 1020.09 1020.33 1020.54 1020.61 1020.78 1021.00 1021.28 1021.70
1019.99 1020.04 1020.27 1020.70 1020.92 1021.06 1020.94 1020.55 1020.42 1020.58 1020.80 1020.75 1020.51 1020.35 1020.35 1020.09 1020.19 1020.12 1020.10 1019.88 1019.69 1019.66 1019.56 1019.53 1019.50 1019.43 1019.41 1019.36 1019.27 1019.25 1019.22 1019.23 1019.26 1019.25 1019.34 1019.45 1019.53 1019.65 1019.86 1020.09 1020.30 1020.45 1020.85
1020.49 1020.47 1021.11 1021.57 1021.72 1021.76 1021.55 1021.35 1021.30 1021.35 1021.44 1021.36 1021.07 1020.81 1020.67 1020.47 1020.37 1020.28 1020.19 1019.98 1019.72 1019.52 1019.35 1019.28 1019.27 1019.20 1019.13 1019.13 1019.08 1019.01 1018.97 1018.88 1018.83 1018.76 1018.76 1018.87 1018.90 1018.92 1019.09 1019.27 1019.46 1019.71 1019.94
1021.38 1021.21 1021.49 1021.95 1022.09 1022.21 1022.17 1022.13 1022.19 1022.17 1022.15 1021.99 1021.85 1021.73 1021.68 1021.47 1021.34 1021.14 1020.85 1020.52 1020.03 1019.59 1019.31 1019.10 1018.98 1018.86 1018.78 1018.73 1018.68 1018.58 1018.51 1018.43 1018.37 1018.30 1018.27 1018.35 1018.39 1018.33 1018.45 1018.58 1018.71 1018.73 1018.99
1022.20 1022.23 1022.24 1022.37 1022.42 1022.52 1022.76 1022.89 1022.80 1022.76 1022.67 1022.62 1022.50 1022.27 1022.17 1022.06 1021.86 1021.56 1021.25 1021.03 1020.67 1020.26 1020.01 1019.71 1019.27 1018.85 1018.48 1018.26 1018.26 1018.15 1018.03 1018.01 1018.01 1017.90 1017.88 1017.87 1017.85 1017.84 1017.85 1017.93 1018.06 1018.32 1018.58
1022.53 1022.54 1022.71 1022.90 1022.98 1022.95 1023.23 1023.25 1023.23 1023.07 1023.07 1023.09 1022.97 1022.77 1022.41 1022.22 1022.08 1021.86 1021.68 1021.42 1020.98 1020.63 1020.33 1019.90 1019.57 1019.22 1018.86 1018.45 1018.16 1017.98 1017.76 1017.55 1017.44 1017.34 1017.28 1017.27 1017.25 1017.21 1017.19 1017.13 1017.37 1017.53 1017.85
Wind_Speed
10 9 8 7 7 6 6 5 5 5 5 4 3 2 1 2 2 3 4 2 4 6 8 4 7 10 6 5 4 8 6 8 14 4 3 5 7 10 11 10 10 11 10
10 9 9 8 7 7 7 6 5 5 4 4 4 3 3 2 3 3 4 4 4 5 8 10 8 5 7 6 6 8 10 8 13 16 4 3 6 8 10 12 9 8 9
10 10 9 9 9 8 8 7 6 5 5 5 4 4 4 3 4 3 4 4 4 5 5 7 8 10 6 6 7 9 10 9 8 9 8 3 4 4 8 9 9 9 8
10 10 10 10 10 9 8 7 7 7 6 5 4 4 4 3 3 4 4 4 4 5 5 5 7 8 11 11 9 11 12 11 10 9 7 5 4 3 4 7 6 5 7
11 11 11 10 9 8 8 8 7 6 5 5 4 4 4 3 2 5 5 5 4 5 5 6 5 6 7 9 10 11 14 11 10 10 7 5 4 6 7 3 5 5 5
12 11 10 9 9 8 8 7 7 6 5 6 6 5 4 2 3 4 5 5 6 6 6 5 5 7 8 9 8 14 18 17 13 10 8 10 10 7 6 7 9 6 4
10 8 9 9 9 9 7 7 7 7 6 6 6 6 5 4 5 5 8 4 6 7 7 7 4 4 8 9 11 9 5 8 13 16 15 13 11 12 11 11 7 4 3
9 9 9 10 9 8 8 8 7 7 7 6 6 6 5 4 5 5 6 7 7 7 7 8 8 9 9 11 11 12 10 8 6 7 10 10 7 12 12 7 9 6 7
9 10 10 10 10 9 10 9 8 7 6 6 4 4 4 5 6 6 5 5 5 6 5 8 8 8 10 11 11 9 8 6 5 5 7 12 15 20 14 11 7 9 3
7 8 8 8 9 9 7 7 4 4 3 2 2 1 1 4 4 6 7 3 5 4 4 5 9 10 14 15 11 10 10 9 8 6 7 11 17 18 24 12 12 10 5
6 6 6 6 6 7 7 4 5 5 4 4 3 3 4 3 3 3 8 6 6 4 4 4 4 12 17 17 12 10 9 9 9 8 6 6 8 10 10 7 11 9 6
7 7 6 5 4 4 6 4 4 4 4 3 2 1 2 4 4 4 7 7 6 6 5 4 4 13 16 17 11 10 14 11 7 7 7 7 7 9 9 7 8 3 2
8 7 6 5 4 4 5 4 2 3 2 2 1 1 2 2 1 6 7 7 8 5 4 5 5 12 14 13 14 13 13 7 8 7 8 8 8 7 7 6 5 5 5
9 7 5 5 5 4 3 2 2 2 2 1 2 1 1 1 1 2 2 3 3 3 4 3 5 6 6 4 5 9 5 7 9 9 8 5 5 7 8 7 5 6 3
9 7 6 4 4 4 3 2 2 1 1 1 1 1 1 1 1 2 2 1 2 2 5 3 2 2 4 3 3 5 4 4 5 4 5 6 7 7 8 8 6 8 5
9 7 6 5 5 4 4 4 4 3 3 1 2 1 1 3 5 5 4 3 5 10 1 1 3 3 4 6 6 6 5 7 6 6 6 7 8 9 9 8 7 8 9
8 7 6 5 4 4 4 3 3 1 3 5 4 3 1 2 5 5 3 0 4 6 1 0 1 3 4 5 4 5 5 6 5 6 6 7 7 7 9 8 9 8 9
8 6 5 5 5 4 4 3 2 2 2 2 4 4 5 6 5 4 1 4 1 1 2 1 1 0 1 1 2 4 3 4 5 6 6 7 8 8 8 9 10 11 9
5 4 4 5 5 5 5 4 3 3 3 1 2 2 5 8 6 6 2 1 0 0 1 1 2 2 2 3 3 3 4 5 5 6 7 8 8 8 9 9 9 13 11
6 5 3 4 4 4 4 4 4 3 2 1 1 3 4 4 4 4 2 2 1 0 1 1 2 2 2 2 3 3 4 5 5 6 6 7 7 8 9 10 10 10 12
4 5 5 5 4 3 3 3 3 2 1 0 1 2 6 3 3 2 2 2 1 1 1 2 2 2 3 2 3 3 4 4 5 6 6 6 7 7 8 8 8 9 9
4 5 5 5 3 3 2 3 2 2 0 0 1 2 6 2 2 2 2 2 1 1 2 2 2 2 3 3 3 3 4 5 5 5 6 6 6 7 7 8 8 9 9
5 7 6 4 3 2 3 3 3 3 3 3 4 4 4 3 3 3 3 3 2 2 2 2 2 2 2 3 3 4 4 5 5 4 5 6 6 7 7 8 9 9 9
4 6 6 4 3 3 3 3 3 3 3 3 4 4 4 5 5 6 6 5 5 6 4 3 3 4 3 3 3 4 4 5 4 5 7 6 7 7 7 8 8 10 9
3 4 4 4 3 3 2 2 2 2 2 2 3 3 4 5 5 5 5 6 5 6 6 6 6 7 7 6 6 7 6 7 7 7 5 7 9 9 8 8 8 8 9
4 4 3 3 2 2 1 1 1 2 2 3 3 3 3 4 4 5 5 6 6 6 7 5 7 10 11 8 9 9 8 8 7 8 6 6 7 7 7 9 11 8 8
Wind_Direction
184 181 181 184 187 182 187 187 180 169 178 171 181 197 182 132 104 113 107 93 109 118 123 132 115 122 98 94 107 122 114 120 118 96 74 80 81 94 92 88 86 88 80
184 180 186 181 183 189 191 184 185 177 180 175 182 207 208 170 149 155 135 127 118 131 135 133 121 109 99 103 109 124 122 115 131 130 118 77 72 84 90 89 84 81 88
179 181 183 186 189 196 191 184 186 181 181 181 187 201 209 194 175 173 157 147 143 136 145 145 139 137 122 120 121 126 124 123 129 129 127 115 95 86 88 79 80 74 72
182 183 187 192 194 194 190 190 188 187 181 187 191 193 219 216 191 175 171 163 161 159 151 157 162 155 150 147 137 134 135 129 127 122 116 113 110 110 96 117 100 75 79
186 191 195 193 191 189 188 190 195 187 189 180 178 196 206 235 215 189 184 172 180 179 173 170 156 152 149 144 149 149 146 141 141 139 146 143 137 157 159 147 116 109 66
191 198 193 184 183 189 189 187 195 190 186 182 182 193 208 216 238 221 200 187 183 188 187 181 156 144 152 146 133 164 158 158 160 156 163 169 167 159 142 147 139 138 141
191 188 187 181 182 184 184 183 191 194 192 193 190 189 204 223 239 248 220 194 198 193 182 178 160 151 155 160 142 127 137 174 177 170 170 183 165 172 155 155 164 143 142
188 186 183 180 177 171 172 184 187 193 202 203 197 197 190 217 236 232 221 219 206 197 183 178 179 174 182 166 168 163 175 183 194 193 191 178 167 158 159 144 136 94 95
183 184 180 181 173 175 179 185 186 186 190 202 213 198 198 219 206 208 189 207 208 207 185 185 177 175 166 163 168 165 159 176 162 142 133 138 144 151 150 130 146 139 135
172 169 167 169 172 178 176 168 162 178 164 154 192 249 214 242 186 212 183 201 199 200 186 183 183 183 170 173 170 165 174 183 160 133 138 144 153 166 166 172 159 168 132
123 128 133 151 157 165 153 154 152 161 164 185 200 226 236 224 252 277 269 188 191 188 197 197 190 184 176 184 175 178 192 147 152 142 138 147 161 171 182 187 181 176 158
114 110 103 100 108 129 132 129 141 159 168 167 179 248 271 240 212 260 279 241 165 170 207 212 187 186 186 184 179 171 148 138 146 145 152 169 177 183 187 182 177 127 83
111 100 100 95 90 104 118 127 141 143 152 172 175 200 235 287 277 253 273 265 205 173 193 209 187 188 186 186 187 161 150 154 159 165 181 191 193 173 152 128 100 93 74
110 104 99 100 98 87 96 118 145 157 159 153 161 195 257 303 275 277 277 289 245 156 151 149 179 158 170 152 137 156 167 172 177 187 191 167 137 154 171 167 164 163 131
112 113 108 102 98 93 70 88 112 85 116 137 148 128 108 27 25 348 286 264 214 167 113 88 88 110 146 152 160 165 155 155 175 158 158 164 171 172 179 174 173 175 184
120 121 119 120 120 118 123 109 84 73 48 172 236 168 283 267 321 347 334 243 186 146 68 142 160 162 188 180 184 184 183 187 192 174 174 177 182 184 181 180 180 192 198
114 116 112 112 110 114 109 110 111 72 99 82 60 47 51 4 347 325 324 299 156 158 101 99 175 193 190 183 187 190 204 203 174 183 183 187 182 184 179 185 193 193 200
97 101 117 118 118 111 104 101 64 60 56 27 16 18 19 355 323 313 253 110 69 186 84 74 31 196 182 177 181 198 174 160 186 191 195 191 190 188 187 193 197 200 201
109 113 119 117 109 110 116 108 100 90 75 25 359 7 13 6 17 30 104 83 144 113 139 192 216 216 198 193 192 194 197 198 197 196 204 199 197 189 201 202 202 201 197
99 98 101 104 104 100 105 110 107 91 85 47 31 2 350 12 19 1 20 20 18 278 253 242 245 250 245 221 203 207 201 201 202 208 209 206 203 204 210 204 202 200 205
112 106 96 103 94 100 104 98 90 95 94 65 5 353 351 355 328 345 336 359 335 290 249 248 262 249 247 240 231 213 218 220 211 212 214 209 203 211 214 213 208 208 208
99 88 76 75 67 62 57 69 75 107 122 327 333 338 347 343 321 323 318 324 313 274 279 285 271 243 241 239 238 239 237 236 227 214 218 216 210 214 213 214 214 211 208
99 100 91 80 74 61 63 46 45 26 11 359 4 3 351 352 337 313 307 291 294 281 278 258 253 261 247 250 240 237 245 247 243 221 224 222 217 216 215 221 219 216 211
91 99 104 97 70 68 52 49 39 30 2 353 346 345 337 344 333 327 325 335 335 345 339 312 264 248 269 261 246 243 244 254 249 247 238 237 235 223 218 220 224 222 220
91 91 90 96 92 83 82 49 33 10 0 345 340 339 337 330 326 326 329 334 336 334 338 336 327 336 301 268 269 266 259 258 258 251 239 235 239 236 227 223 220 220 215
96 89 81 80 90 76 45 24 5 355 343 329 323 319 318 316 315 319 324 325 332 330 322 328 327 337 337 329 327 310 286 269 256 253 244 236 241 243 237 229 223 216 211